"Pseudo-MPEC" for CARRDL2
Created 2024 Sep 7 14:22:08 UT using Find_Orb
Click here for an explanation of pseudo-MPECs
Astrometry:
CARRDL2*1C2024 09 07.36771902 38 04.888+15 06 25.49 ~979q 19.81GVNEOCPG96
CARRDL2 1C2024 09 07.37288502 38 04.762+15 06 33.80 ~979q 19.91GVNEOCPG96
CARRDL2 1C2024 09 07.37803202 38 04.643+15 06 42.62 ~979q 19.92GVNEOCPG96
CARRDL2 1C2024 09 07.38317502 38 04.502+15 06 50.90 ~979q 20.02GVNEOCPG96
CARRDL2 mC2024 09 07.42155402 38 03.600+15 07 54.40 ~97Ab 19.93GVNEOCPI52
CARRDL2 KB2024 09 07.42372 02 38 03.449+15 07 57.32 ~97B7 19.5 RZNEOCPH36
CARRDL2 mC2024 09 07.42493302 38 03.500+15 08 00.10 ~97Ab 19.96GVNEOCPI52
CARRDL2 KB2024 09 07.43193 02 38 03.223+15 08 10.39 ~97B7 19.4 RZNEOCPH36
CARRDL2 KB2024 09 07.43962 02 38 03.050+15 08 23.53 ~97B7 19.4 RZNEOCPH36
CARRDL2 mC2024 09 07.49144002 38 01.856+15 09 49.97 ~97CM 19.76GVNEOCPV06
CARRDL2 mC2024 09 07.49438102 38 01.788+15 09 54.72 ~97CM 19.75GVNEOCPV06
CARRDL2 mC2024 09 07.49742402 38 01.709+15 09 59.72 ~97CM 19.81GVNEOCPV06
CARRDL2 mC2024 09 07.50035202 38 01.655+15 10 04.80 ~97CM 20.03GVNEOCPV06
Station data:
(G96) Mt. Lemmon Survey (N32.442729 W110.788720) US/Arizona. Observer E.
J. Christensen. 1.5-m reflector + 10K CCD.
(H36) Sandlot Observatory, Scranton (N38.797718 W95.706550) US/Kansas.
Observer G. Hug. 0.56-m reflector + CCD.
(I52) Steward Observatory, Mt. Lemmon Station (N32.442570 W110.788920)
US/Arizona. Observers T. A. Pruyne, B. M. Africano, E. J. Christensen, G.
A. Farneth, D. C. Fuls, A. R. Gibbs, A. D. Grauer, H. Gröller, J. A.
Johnson, R. A. Kowalski, S. M. Larson, G. J. Leonard, D. Rankin, R. L.
Seaman, F. C. Shelly, K. W. Wierzchoś. 1.0-m prime focus + CCD.
(V06) Catalina Sky Survey-Kuiper (N32.416871 W110.732550) US/Arizona.
Observers T. A. Pruyne, B. M. Africano, E. J. Christensen, G. A. Farneth,
D. C. Fuls, A. R. Gibbs, A. D. Grauer, H. Gröller, J. A. Johnson, R. A.
Kowalski, S. M. Larson, G. J. Leonard, D. Rankin, R. L. Seaman, F. C.
Shelly, K. W. Wierzchoś. 1.55-m reflector + CCD.
Orbital elements: CARRDL2
Perihelion 2025 Jan 11.17933 +/- 90 TT = 4:18:14 (JD 2460686.67933)
Epoch 2024 Sep 7.0 TT = JDT 2460560.5 Earth MOID: 0.1710 AutoNEOCP
M 329.22027961 +/- 41 (J2000 ecliptic)
n 0.24393631 +/- 0.202 Peri. 107.91300 +/- 60
a 2.53679329 +/- 1.4 Node 14.40115 +/- 3.8
e 0.6540047 +/- 0.256 Incl. 49.68428 +/- 12
P 4.04043 H 17.42 G 0.15 U 11.7 SR
q 0.87771844 +/- 0.492 Q 4.19586814 +/- 34.9
From 13 observations 2024 Sept. 7 (3.2 hr); mean residual 0".18
Residuals in arcseconds: 240907 G96 .08- .09+ 240907 H36 .51+ .13+ 240907 V06 .13- .06- 240907 G96 .11- .14- 240907 I52 .12- .07+ 240907 V06 .19- .09- 240907 G96 .05- .16+ 240907 H36 .12+ .35- 240907 V06 .08+ .16+ 240907 G96 .30- .07- 240907 H36 .32+ .10+ 240907 I52 .14+ .04- 240907 V06 .20- .04+ Ephemerides (geocentric): Date (UTC) HH RA Dec delta r elong mag " sig PA ---- -------- ------------ ------------ ------ ------ ----- --- -------- 2024 09 07 14 02 37 59.970 +15 12 24.60 1.0622 1.8211 123.2 20.1 1.86 112 2024 09 07 15 02 37 59.048 +15 13 33.74 1.0614 1.8207 123.3 20.1 2.31 106 2024 09 07 16 02 37 58.121 +15 14 42.97 1.0606 1.8204 123.3 20.1 2.76 102 2024 09 07 17 02 37 57.187 +15 15 52.27 1.0598 1.8200 123.3 20.1 3.22 98 2024 09 07 18 02 37 56.248 +15 17 01.65 1.0591 1.8196 123.4 20.1 3.67 96 2024 09 07 19 02 37 55.302 +15 18 11.12 1.0583 1.8192 123.4 20.1 4.13 93 2024 09 07 20 02 37 54.350 +15 19 20.66 1.0575 1.8189 123.5 20.1 4.57 91 2024 09 07 21 02 37 53.393 +15 20 30.29 1.0568 1.8185 123.5 20.1 5.02 89 2024 09 07 22 02 37 52.429 +15 21 39.99 1.0560 1.8181 123.5 20.1 5.47 86 2024 09 07 23 02 37 51.459 +15 22 49.78 1.0552 1.8178 123.6 20.1 5.91 84 2024 09 08 00 02 37 50.483 +15 23 59.65 1.0544 1.8174 123.6 20.1 6.36 81 2024 09 08 01 02 37 49.501 +15 25 09.60 1.0537 1.8170 123.6 20.1 6.82 79 2024 09 08 02 02 37 48.512 +15 26 19.63 1.0529 1.8167 123.7 20.1 7.28 76 2024 09 08 03 02 37 47.518 +15 27 29.74 1.0521 1.8163 123.7 20.1 7.77 73 2024 09 08 04 02 37 46.517 +15 28 39.93 1.0513 1.8159 123.8 20.1 8.27 69 2024 09 08 05 02 37 45.510 +15 29 50.21 1.0506 1.8155 123.8 20.1 8.80 65 2024 09 08 06 02 37 44.497 +15 31 00.57 1.0498 1.8152 123.8 20.0 9.37 61 2024 09 08 07 02 37 43.478 +15 32 11.01 1.0490 1.8148 123.9 20.0 9.98 57 2024 09 08 08 02 37 42.453 +15 33 21.53 1.0483 1.8144 123.9 20.0 10.6 53 2024 09 08 09 02 37 41.421 +15 34 32.13 1.0475 1.8141 124.0 20.0 11.3 50 2024 09 08 10 02 37 40.383 +15 35 42.82 1.0467 1.8137 124.0 20.0 12.1 46 2024 09 08 11 02 37 39.339 +15 36 53.59 1.0459 1.8133 124.0 20.0 12.9 43 2024 09 08 12 02 37 38.289 +15 38 04.44 1.0452 1.8129 124.1 20.0 13.8 40 2024 09 08 13 02 37 37.232 +15 39 15.38 1.0444 1.8126 124.1 20.0 14.7 37 2024 09 08 14 02 37 36.170 +15 40 26.40 1.0436 1.8122 124.1 20.0 15.7 35 2024 09 08 15 02 37 35.100 +15 41 37.50 1.0429 1.8118 124.2 20.0 16.7 33 2024 09 08 16 02 37 34.025 +15 42 48.68 1.0421 1.8115 124.2 20.0 17.7 32 2024 09 08 17 02 37 32.943 +15 43 59.95 1.0413 1.8111 124.3 20.0 18.8 30 2024 09 08 18 02 37 31.855 +15 45 11.30 1.0406 1.8107 124.3 20.0 20.0 29 2024 09 08 19 02 37 30.761 +15 46 22.74 1.0398 1.8104 124.3 20.0 21.2 27 2024 09 08 20 02 37 29.660 +15 47 34.25 1.0390 1.8100 124.4 20.0 22.4 26 2024 09 08 21 02 37 28.553 +15 48 45.86 1.0383 1.8096 124.4 20.0 23.7 25 2024 09 08 22 02 37 27.439 +15 49 57.55 1.0375 1.8092 124.5 20.0 25.0 25 2024 09 08 23 02 37 26.319 +15 51 09.32 1.0367 1.8089 124.5 20.0 26.4 24 2024 09 09 00 02 37 25.193 +15 52 21.17 1.0360 1.8085 124.5 20.0 27.8 23 2024 09 09 01 02 37 24.060 +15 53 33.11 1.0352 1.8081 124.6 20.0 29.3 22 2024 09 09 02 02 37 22.921 +15 54 45.14 1.0344 1.8078 124.6 20.0 30.8 22 2024 09 09 03 02 37 21.775 +15 55 57.25 1.0337 1.8074 124.6 20.0 32.3 21 2024 09 09 04 02 37 20.623 +15 57 09.44 1.0329 1.8070 124.7 20.0 33.9 21 2024 09 09 05 02 37 19.465 +15 58 21.72 1.0321 1.8066 124.7 20.0 35.5 20 2024 09 09 06 02 37 18.300 +15 59 34.09 1.0314 1.8063 124.8 20.0 37.2 20 2024 09 09 07 02 37 17.128 +16 00 46.54 1.0306 1.8059 124.8 20.0 38.9 20 2024 09 09 08 02 37 15.950 +16 01 59.08 1.0298 1.8055 124.8 20.0 40.6 19 2024 09 09 09 02 37 14.766 +16 03 11.70 1.0291 1.8052 124.9 20.0 42.4 19 2024 09 09 10 02 37 13.575 +16 04 24.41 1.0283 1.8048 124.9 20.0 44.2 19 2024 09 09 11 02 37 12.377 +16 05 37.20 1.0275 1.8044 125.0 20.0 46.1 18 2024 09 09 12 02 37 11.173 +16 06 50.08 1.0268 1.8040 125.0 20.0 48.0 18 2024 09 09 13 02 37 09.963 +16 08 03.05 1.0260 1.8037 125.0 20.0 50.0 18